When you browse on this site, cookies collect data to enhance your experience and personalize the content and advertising you see.
Visit our Privacy Policy to learn more. By continuing to use the site, you agree to this use of cookies and data.
  • In Österreich
  • Länderverzeichnis
  • Für 7 Tage
  • Wassertemperatur
  • Wetterkarte
  • News
  • Widgets
  • user-avatar
    Anmelden

    Stündliche Wetter Constantine

    Heute, 6 Dezember, Freitag

    Zeit Temperatur Niederschläge Wind Luftdruck Luftfeuchtigkeit
    00:00 +12°C° 0 mm 2 m/S 713 mmHg 64%
    01:00 +10°C° 0 mm 2 m/S 713 mmHg 65%
    02:00 +11°C° 0 mm 1 m/S 712 mmHg 65%
    03:00 +11°C° 0 mm 1 m/S 712 mmHg 66%
    04:00 +11°C° 0 mm 1 m/S 712 mmHg 66%
    05:00 +10°C° 0 mm 1 m/S 713 mmHg 66%
    06:00 +10°C° 0 mm 1 m/S 713 mmHg 67%
    07:00 +12°C° 0 mm 1 m/S 713 mmHg 63%
    08:00 +13°C° 0 mm 1 m/S 714 mmHg 59%
    09:00 +14°C° 0 mm 1 m/S 714 mmHg 55%
    10:00 +15°C° 0 mm 1 m/S 714 mmHg 51%
    11:00 +16°C° 0 mm 1 m/S 714 mmHg 47%
    12:00 +18°C° 0 mm 1 m/S 714 mmHg 43%
    13:00 +18°C° 0 mm 1 m/S 714 mmHg 44%
    14:00 +18°C° 0 mm 1 m/S 713 mmHg 45%
    15:00 +18°C° 0 mm 1 m/S 713 mmHg 47%
    16:00 +14°C° 0 mm 0 m/S 713 mmHg 51%
    17:00 +13°C° 0 mm 0 m/S 713 mmHg 55%
    18:00 +11°C° 0 mm 0 m/S 713 mmHg 59%
    19:00 +11°C° 0 mm 0 m/S 713 mmHg 60%
    20:00 +10°C° 0 mm 0 m/S 713 mmHg 60%
    21:00 +10°C° 0 mm 0 m/S 713 mmHg 61%
    22:00 +11°C° 0 mm 1 m/S 713 mmHg 61%
    23:00 +11°C° 0 mm 1 m/S 713 mmHg 61%

    Morgen, 7 Dezember, Samstag

    Zeit Temperatur Niederschläge Wind Luftdruck Luftfeuchtigkeit
    00:00 +10°C° 0 mm 1 m/S 713 mmHg 61%
    01:00 +10°C° 0 mm 1 m/S 713 mmHg 61%
    02:00 +10°C° 0 mm 1 m/S 712 mmHg 60%
    03:00 +10°C° 0 mm 1 m/S 712 mmHg 60%
    04:00 +10°C° 0 mm 1 m/S 712 mmHg 59%
    05:00 +10°C° 0 mm 1 m/S 712 mmHg 59%
    06:00 +10°C° 0 mm 1 m/S 712 mmHg 59%
    07:00 +11°C° 0 mm 1 m/S 713 mmHg 54%
    08:00 +13°C° 0 mm 1 m/S 713 mmHg 49%
    09:00 +14°C° 0 mm 0 m/S 714 mmHg 45%
    10:00 +15°C° 0 mm 0 m/S 714 mmHg 41%
    11:00 +16°C° 0 mm 0 m/S 713 mmHg 38%
    12:00 +17°C° 0 mm 0 m/S 713 mmHg 35%
    13:00 +17°C° 0 mm 0 m/S 713 mmHg 38%
    14:00 +19°C° 0 mm 1 m/S 713 mmHg 41%
    15:00 +19°C° 0 mm 1 m/S 713 mmHg 44%
    16:00 +16°C° 0 mm 1 m/S 713 mmHg 49%
    17:00 +15°C° 0 mm 1 m/S 712 mmHg 54%
    18:00 +13°C° 0 mm 1 m/S 712 mmHg 59%
    19:00 +13°C° 0 mm 1 m/S 712 mmHg 62%
    20:00 +12°C° 0 mm 1 m/S 713 mmHg 65%
    21:00 +11°C° 0 mm 1 m/S 713 mmHg 67%
    22:00 +11°C° 0 mm 1 m/S 713 mmHg 70%
    23:00 +11°C° 0 mm 1 m/S 713 mmHg 73%

    übermorgen, 8 Dezember, Sonntag

    Zeit Temperatur Niederschläge Wind Luftdruck Luftfeuchtigkeit
    00:00 +10°C° 0 mm 1 m/S 713 mmHg 76%
    01:00 +9°C° 0 mm 0 m/S 713 mmHg 77%
    02:00 +9°C° 0 mm 0 m/S 712 mmHg 79%
    03:00 +8°C° 0 mm 0 m/S 712 mmHg 80%
    04:00 +8°C° 0 mm 0 m/S 713 mmHg 81%
    05:00 +8°C° 0 mm 0 m/S 713 mmHg 81%
    06:00 +9°C° 0 mm 1 m/S 713 mmHg 82%
    07:00 +10°C° 0 mm 1 m/S 713 mmHg 77%
    08:00 +12°C° 0 mm 1 m/S 714 mmHg 72%
    09:00 +13°C° 0 mm 1 m/S 714 mmHg 66%
    10:00 +14°C° 0 mm 1 m/S 714 mmHg 62%
    11:00 +15°C° 0 mm 2 m/S 714 mmHg 57%
    12:00 +16°C° 0 mm 2 m/S 714 mmHg 52%
    13:00 +16°C° 0 mm 2 m/S 714 mmHg 54%
    14:00 +16°C° 0 mm 2 m/S 714 mmHg 55%
    15:00 +15°C° 0 mm 2 m/S 714 mmHg 57%
    16:00 +14°C° 0 mm 2 m/S 714 mmHg 67%
    17:00 +12°C° 0 mm 1 m/S 714 mmHg 77%
    18:00 +11°C° 0 mm 1 m/S 714 mmHg 86%
    19:00 +10°C° 0 mm 1 m/S 714 mmHg 88%
    20:00 +9°C° 0 mm 0 m/S 714 mmHg 90%
    21:00 +9°C° 0 mm 0 m/S 714 mmHg 92%
    22:00 +8°C° 0 mm 0 m/S 714 mmHg 92%
    23:00 +9°C° 0 mm 1 m/S 714 mmHg 92%

    9 Dezember, Montag

    Zeit Temperatur Niederschläge Wind Luftdruck Luftfeuchtigkeit
    00:00 +9°C° 0 mm 1 m/S 714 mmHg 92%
    01:00 +9°C° 0 mm 1 m/S 714 mmHg 91%
    02:00 +9°C° 0 mm 1 m/S 713 mmHg 90%
    03:00 +8°C° 0 mm 1 m/S 713 mmHg 89%
    04:00 +8°C° 0 mm 1 m/S 713 mmHg 87%
    05:00 +8°C° 0 mm 1 m/S 713 mmHg 85%
    06:00 +8°C° 0 mm 1 m/S 713 mmHg 83%
    07:00 +9°C° 0 mm 2 m/S 714 mmHg 75%
    08:00 +10°C° 0 mm 2 m/S 714 mmHg 67%
    09:00 +13°C° 0 mm 2 m/S 714 mmHg 59%
    10:00 +13°C° 0 mm 2 m/S 714 mmHg 58%
    11:00 +13°C° 0 mm 3 m/S 714 mmHg 57%
    12:00 +13°C° 0 mm 3 m/S 714 mmHg 56%
    13:00 +13°C° 0 mm 3 m/S 714 mmHg 58%
    14:00 +13°C° 0 mm 3 m/S 714 mmHg 61%
    15:00 +13°C° 0 mm 4 m/S 713 mmHg 63%
    16:00 +12°C° 0 mm 3 m/S 713 mmHg 68%
    17:00 +11°C° 0 mm 3 m/S 713 mmHg 73%
    18:00 +9°C° 0 mm 2 m/S 713 mmHg 78%
    19:00 +9°C° 0 mm 2 m/S 714 mmHg 77%
    20:00 +9°C° 0 mm 2 m/S 714 mmHg 76%
    21:00 +8°C° 0 mm 2 m/S 714 mmHg 75%
    22:00 +8°C° 0 mm 2 m/S 714 mmHg 74%
    23:00 +8°C° 0 mm 2 m/S 714 mmHg 73%

    10 Dezember, Dienstag

    Zeit Temperatur Niederschläge Wind Luftdruck Luftfeuchtigkeit
    00:00 +8°C° 0 mm 2 m/S 714 mmHg 72%
    01:00 +8°C° 0.1 mm 2 m/S 714 mmHg 77%
    02:00 +8°C° 0.1 mm 3 m/S 714 mmHg 83%
    03:00 +8°C° 0.1 mm 3 m/S 714 mmHg 88%
    04:00 +8°C° 0.1 mm 3 m/S 714 mmHg 88%
    05:00 +8°C° 0.1 mm 3 m/S 714 mmHg 88%
    06:00 +8°C° 0.1 mm 2 m/S 714 mmHg 88%
    07:00 +9°C° 0 mm 3 m/S 714 mmHg 83%
    08:00 +8°C° 0 mm 4 m/S 715 mmHg 79%
    09:00 +10°C° 0 mm 4 m/S 715 mmHg 74%
    10:00 +11°C° 0 mm 4 m/S 715 mmHg 70%
    11:00 +10°C° 0 mm 5 m/S 714 mmHg 66%
    12:00 +12°C° 0 mm 5 m/S 714 mmHg 62%
    13:00 +12°C° 0 mm 5 m/S 714 mmHg 61%
    14:00 +12°C° 0 mm 5 m/S 713 mmHg 61%
    15:00 +10°C° 0 mm 5 m/S 713 mmHg 61%
    16:00 +10°C° 0 mm 4 m/S 713 mmHg 68%
    17:00 +9°C° 0 mm 3 m/S 713 mmHg 76%
    18:00 +8°C° 0 mm 2 m/S 713 mmHg 84%
    19:00 +7°C° 0 mm 2 m/S 713 mmHg 85%
    20:00 +7°C° 0 mm 2 m/S 713 mmHg 87%
    21:00 +8°C° 0 mm 1 m/S 714 mmHg 89%
    22:00 +7°C° 0 mm 1 m/S 713 mmHg 89%
    23:00 +7°C° 0 mm 1 m/S 713 mmHg 90%

    11 Dezember, Mittwoch

    Zeit Temperatur Niederschläge Wind Luftdruck Luftfeuchtigkeit
    00:00 +7°C° 0 mm 1 m/S 713 mmHg 90%
    01:00 +7°C° 0 mm 1 m/S 713 mmHg 89%
    02:00 +6°C° 0 mm 1 m/S 713 mmHg 89%
    03:00 +5°C° 0 mm 2 m/S 712 mmHg 89%
    04:00 +6°C° 0 mm 1 m/S 712 mmHg 87%
    05:00 +6°C° 0 mm 1 m/S 712 mmHg 86%
    06:00 +6°C° 0 mm 1 m/S 712 mmHg 84%
    07:00 +8°C° 0 mm 1 m/S 713 mmHg 75%
    08:00 +8°C° 0 mm 2 m/S 713 mmHg 66%
    09:00 +10°C° 0 mm 2 m/S 713 mmHg 57%
    10:00 +12°C° 0 mm 2 m/S 713 mmHg 50%
    11:00 +14°C° 0 mm 2 m/S 713 mmHg 42%
    12:00 +15°C° 0 mm 2 m/S 713 mmHg 34%
    13:00 +15°C° 0 mm 2 m/S 712 mmHg 35%
    14:00 +15°C° 0 mm 2 m/S 712 mmHg 37%
    15:00 +16°C° 0 mm 1 m/S 711 mmHg 38%
    16:00 +14°C° 0 mm 1 m/S 711 mmHg 42%
    17:00 +12°C° 0 mm 1 m/S 711 mmHg 47%
    18:00 +9°C° 0 mm 0 m/S 711 mmHg 52%
    19:00 +9°C° 0 mm 0 m/S 711 mmHg 51%
    20:00 +10°C° 0 mm 1 m/S 711 mmHg 51%
    21:00 +10°C° 0 mm 1 m/S 711 mmHg 51%
    22:00 +9°C° 0 mm 1 m/S 711 mmHg 52%
    23:00 +9°C° 0 mm 1 m/S 711 mmHg 52%
    Mehr zeigen